DW9686 Weather Reports


time (UTC)temp
C
wind
direction
speed
KPH
gust
KPH
rain 1hr
cm
rain 24hr
cm
rain mn
cm
humidity
%
barometer
mb
20260903053036 14 167 14.5 24.1 0.00 0.03 0.03 90 1008.1
20260903051547 14 166 9.7 16.1 0.00 0.03 0.03 90 1008.2
20260903050045 15 167 8.0 14.5 0.00 0.03 0.03 90 1008.1
20260903044540 15 169 9.7 16.1 0.00 0.03 0.03 89 1008.0
20260903043042 15 173 9.7 14.5 0.00 0.03 0.03 89 1008.1
20260903041540 15 184 4.8 9.7 0.00 0.03 0.03 88 1008.3
20260903040051 15 186 6.4 11.3 0.00 0.03 0.03 88 1008.3
20260903034538 15 189 4.8 9.7 0.00 0.03 0.03 87 1008.2
20260903033039 15 192 4.8 11.3 0.03 0.03 0.03 87 1008.1
20260903031537 15 208 3.2 6.4 0.03 0.03 0.03 85 1008.0
20260903030043 15 208 3.2 8.0 0.03 0.03 0.03 83 1007.8
20260903024543 15 209 6.4 16.1 0.03 0.03 0.03 82 1007.9
20260903023038 15 219 9.7 19.3 0.00 0.00 0.00 79 1007.9
20260903021541 16 217 9.7 16.1 0.00 0.00 0.00 77 1007.8
20260903020041 16 209 9.7 16.1 0.00 0.00 0.00 75 1007.8
20260903014542 16 216 11.3 20.9 0.00 0.00 0.00 74 1007.7
20260903013042 16 225 12.9 25.7 0.00 0.00 0.00 73 1007.7
20260903011547 16 229 11.3 19.3 0.00 0.00 0.00 73 1007.7
20260903010043 16 215 14.5 25.7 0.00 0.00 0.00 71 1007.7
20260903004536 16 197 11.3 25.7 0.00 0.00 0.00 73 1007.4
20260903003036 17 238 14.5 30.6 0.00 0.00 0.00 69 1007.5
20260903001556 18 222 14.5 27.4 0.00 0.00 0.00 64 1007.3
20260903000037 18 228 16.1 38.6 0.00 0.00 0.00 62 1007.0
20260902234537 18 238 20.9 30.6 0.00 0.00 0.00 62 1006.9
20260902233039 18 232 19.3 29.0 0.00 0.00 0.00 65 1006.9
20260902231539 18 232 19.3 41.8 0.00 0.00 0.00 66 1006.8
20260902230039 18 245 20.9 45.1 0.00 0.00 0.00 66 1006.9
20260902224542 19 207 29.0 48.3 0.00 0.00 0.00 64 1006.8
20260902223040 22 169 6.4 11.3 0.00 0.00 0.00 54 1005.8
20260902221544 23 169 6.4 14.5 0.00 0.00 0.00 49 1005.7
20260902220050 23 158 1.6 9.7 0.00 0.00 0.00 50 1005.8
20260902214540 23 158 6.4 12.9 0.00 0.00 0.00 45 1005.8
20260902213046 23 164 9.7 17.7 0.00 0.00 0.00 45 1006.0
20260902211541 23 175 8.0 14.5 0.00 0.00 0.00 48 1006.0
20260902210039 23 166 11.3 19.3 0.00 0.00 0.00 47 1006.2
20260902204538 23 203 8.0 16.1 0.00 0.00 0.00 48 1006.4
20260902203042 22 249 8.0 16.1 0.00 0.00 0.00 51 1006.5
20260902201539 22 221 4.8 17.7 0.00 0.00 0.00 51 1006.6
20260902200039 22 217 8.0 24.1 0.00 0.00 0.00 51 1006.8
20260902194543 22 205 12.9 24.1 0.00 0.00 0.00 53 1007.1
20260902193038 22 205 14.5 25.7 0.00 0.00 0.00 51 1007.2
20260902191550 21 205 14.5 25.7 0.00 0.00 0.00 56 1007.3
20260902190052 21 205 11.3 19.3 0.00 0.00 0.00 57 1007.6
20260902184539 20 211 11.3 22.5 0.00 0.00 0.00 59 1007.7
20260902183041 20 200 12.9 22.5 0.00 0.00 0.00 57 1007.9
20260902181537 20 216 12.9 24.1 0.00 0.00 0.00 60 1008.1
20260902180042 19 194 12.9 22.5 0.00 0.00 0.00 64 1008.1
20260902174537 18 200 12.9 20.9 0.00 0.00 0.00 65 1008.0
20260902173041 18 196 12.9 19.3 0.00 0.00 0.00 66 1008.1
20260902171600 18 187 8.0 19.3 0.00 0.00 0.00 67 1008.1
20260902170103 17 201 11.3 17.7 0.00 0.00 0.00 68 1008.0
20260902164541 17 193 9.7 17.7 0.00 0.00 0.00 68 1008.2
20260902163036 17 209 12.9 20.9 0.00 0.00 0.00 71 1008.2
20260902161544 17 221 9.7 19.3 0.00 0.00 0.00 74 1008.2
20260902160042 16 217 12.9 17.7 0.00 0.00 0.00 78 1008.3
20260902154537 15 205 16.1 24.1 0.00 0.00 0.00 78 1008.5
20260902153037 15 196 12.9 19.3 0.00 0.00 0.00 82 1008.4
20260902151536 14 203 8.0 14.5 0.00 0.00 0.00 83 1008.3
20260902150040 13 203 3.2 8.0 0.00 0.00 0.00 86 1008.4
20260902144538 13 203 6.4 9.7 0.00 0.00 0.00 84 1008.4
20260902143039 13 203 1.6 6.4 0.00 0.00 0.00 84 1008.3
20260902141546 13 203 6.4 12.9 0.00 0.00 0.00 84 1008.1
20260902140036 12 203 1.6 6.4 0.00 0.00 0.00 84 1008.2
20260902134544 13 203 4.8 11.3 0.00 0.00 0.00 83 1007.7
20260902133039 13 203 8.0 12.9 0.00 0.00 0.00 83 1007.6
20260902131535 13 203 6.4 12.9 0.00 0.00 0.00 83 1007.3
20260902130038 13 203 8.0 16.1 0.00 0.00 0.00 82 1007.2
20260902124539 13 202 11.3 16.1 0.00 0.00 0.00 82 1007.1
20260902123037 13 202 9.7 16.1 0.00 0.00 0.00 83 1007.2
20260902121540 13 198 11.3 16.1 0.00 0.00 0.00 80 1007.1
20260902120039 14 193 9.7 16.1 0.00 0.00 0.00 80 1007.3
20260902114540 14 192 11.3 20.9 0.00 0.00 0.00 80 1007.6
20260902113037 13 190 9.7 16.1 0.00 0.00 0.00 82 1007.7
20260902111538 13 190 4.8 9.7 0.00 0.00 0.00 80 1007.3
20260902110038 13 190 4.8 11.3 0.00 0.00 0.00 79 1007.1
20260902104542 13 190 8.0 12.9 0.00 0.00 0.00 78 1006.9
20260902103036 13 183 8.0 14.5 0.00 0.00 0.00 79 1006.8
20260902101533 13 183 3.2 6.4 0.00 0.00 0.00 79 1006.8
20260902100040 13 183 4.8 8.0 0.00 0.00 0.00 79 1007.0
20260902094537 13 183 4.8 8.0 0.00 0.00 0.00 78 1006.6
20260902093040 13 183 6.4 9.7 0.00 0.00 0.00 77 1006.7
20260902091538 14 183 4.8 6.4 0.00 0.00 0.00 77 1006.7
20260902090037 15 183 1.6 4.8 0.00 0.00 0.00 75 1006.9
20260902084541 16 183 1.6 6.4 0.00 0.00 0.00 71 1006.8
20260902083039 16 183 3.2 6.4 0.00 0.00 0.00 71 1006.5
20260902081538 16 183 3.2 6.4 0.00 0.00 0.00 73 1006.6
20260902080039 16 183 4.8 8.0 0.00 0.00 0.00 73 1006.4
20260902074547 16 183 4.8 9.7 0.00 0.00 0.00 73 1006.4
20260902073037 16 183 6.4 9.7 0.00 0.00 0.00 73 1006.2
20260902071538 17 183 3.2 6.4 0.00 0.00 0.00 69 1006.2
20260902070039 17 183 3.2 4.8 0.00 0.00 0.00 69 1006.1
20260902064536 18 183 3.2 6.4 0.00 0.00 0.00 67 1006.0
20260902063059 17 183 11.3 17.7 0.00 0.00 0.00 70 1005.8
20260902061536 17 147 4.8 14.5 0.00 0.00 0.00 70 1005.7
20260902060052 17 125 4.8 12.9 0.00 0.00 0.00 68 1005.4
20260902054539 17 121 4.8 12.9 0.00 0.00 0.00 68 1005.4